Time,TemperatureF,DewpointF,PressureIn,WindDirection,WindDirectionDegrees,WindSpeedMPH,WindSpeedGustMPH,Humidity,HourlyPrecipIn,Conditions,Clouds,dailyrainin,SoftwareType,DateUTC
2013-09-12 00:00:00,68.2,63.8,29.96,NW,315,0.0,0.0,86,0.00,,,0.29,WUHU21623XXSP,2013-09-12 04:00:00,
2013-09-12 00:01:00,68.2,63.8,29.96,NW,315,0.0,0.0,86,0.00,,,0.29,WUHU21623XXSP,2013-09-12 04:01:00,
2013-09-12 00:02:00,68.2,63.8,29.96,NW,315,0.0,0.0,86,0.00,,,0.00,WUHU21623XXSP,2013-09-12 04:02:00,
2013-09-12 00:07:00,68.2,63.8,29.95,NW,315,0.0,0.0,86,0.00,,,0.00,WUHU21623XXSP,2013-09-12 04:07:00,
2013-09-12 00:12:00,68.2,63.8,29.95,NW,315,0.0,0.0,86,0.00,,,0.00,WUHU21623XXSP,2013-09-12 04:12:00,
2013-09-12 00:17:00,67.8,63.6,29.96,NW,315,0.0,0.0,86,0.00,,,0.00,WUHU21623XXSP,2013-09-12 04:17:00,
2013-09-12 00:22:00,67.8,63.5,29.95,NW,315,0.0,0.0,86,0.00,,,0.00,WUHU21623XXSP,2013-09-12 04:22:00,
2013-09-12 00:27:00,67.8,63.5,29.95,NW,315,0.0,0.0,86,0.00,,,0.00,WUHU21623XXSP,2013-09-12 04:27:00,
2013-09-12 00:32:00,67.8,63.5,29.95,NW,315,0.0,0.0,86,0.00,,,0.00,WUHU21623XXSP,2013-09-12 04:32:00,
2013-09-12 00:37:00,67.8,63.5,29.95,NW,315,0.0,0.0,86,0.00,,,0.00,WUHU21623XXSP,2013-09-12 04:37:00,
2013-09-12 00:42:00,67.8,63.8,29.94,NW,315,0.0,0.0,87,0.00,,,0.00,WUHU21623XXSP,2013-09-12 04:42:00,
2013-09-12 00:47:00,67.8,63.5,29.94,NW,315,0.0,0.0,86,0.00,,,0.00,WUHU21623XXSP,2013-09-12 04:47:00,
2013-09-12 00:52:00,67.8,63.8,29.94,NW,315,0.0,0.0,87,0.00,,,0.00,WUHU21623XXSP,2013-09-12 04:52:00,
2013-09-12 00:57:00,67.8,63.8,29.94,NW,315,0.0,0.0,87,0.00,,,0.00,WUHU21623XXSP,2013-09-12 04:57:00,
2013-09-12 01:02:00,67.8,63.8,29.94,NW,315,0.0,0.0,87,0.00,,,0.00,WUHU21623XXSP,2013-09-12 05:02:00,
2013-09-12 01:07:00,67.6,63.6,29.93,NW,315,0.0,0.0,87,0.00,,,0.00,WUHU21623XXSP,2013-09-12 05:07:00,
2013-09-12 01:12:00,67.6,63.6,29.93,NW,315,0.0,0.0,87,0.00,,,0.00,WUHU21623XXSP,2013-09-12 05:12:00,
2013-09-12 01:17:00,67.6,63.6,29.93,NW,315,0.0,0.0,87,0.00,,,0.00,WUHU21623XXSP,2013-09-12 05:17:00,
2013-09-12 01:22:00,67.6,63.6,29.93,NW,315,0.0,0.0,87,0.00,,,0.00,WUHU21623XXSP,2013-09-12 05:22:00,
2013-09-12 01:27:00,67.6,63.6,29.93,NW,315,0.0,0.0,87,0.00,,,0.00,WUHU21623XXSP,2013-09-12 05:27:00,
2013-09-12 01:32:00,67.6,63.6,29.93,NW,315,0.0,0.0,87,0.00,,,0.00,WUHU21623XXSP,2013-09-12 05:32:00,
2013-09-12 01:37:00,67.5,63.4,29.93,NW,315,0.0,0.0,87,0.00,,,0.00,WUHU21623XXSP,2013-09-12 05:37:00,
2013-09-12 01:42:00,67.5,63.4,29.93,NW,315,0.0,0.0,87,0.00,,,0.00,WUHU21623XXSP,2013-09-12 05:42:00,
2013-09-12 01:47:00,67.3,63.6,29.93,NW,315,0.0,0.0,88,0.00,,,0.00,WUHU21623XXSP,2013-09-12 05:47:00,
2013-09-12 01:52:00,67.3,63.6,29.93,NW,315,0.0,0.0,88,0.00,,,0.00,WUHU21623XXSP,2013-09-12 05:52:00,
2013-09-12 01:57:00,67.3,63.6,29.93,NW,315,0.0,0.0,88,0.00,,,0.00,WUHU21623XXSP,2013-09-12 05:57:00,
2013-09-12 02:02:00,67.3,63.6,29.93,NW,315,0.0,0.0,88,0.00,,,0.00,WUHU21623XXSP,2013-09-12 06:02:00,
2013-09-12 02:07:00,67.3,63.6,29.93,NW,315,0.0,0.0,88,0.00,,,0.00,WUHU21623XXSP,2013-09-12 06:07:00,
2013-09-12 02:12:00,67.3,63.6,29.93,NW,315,0.0,0.0,88,0.00,,,0.00,WUHU21623XXSP,2013-09-12 06:12:00,
2013-09-12 02:17:00,67.3,63.6,29.93,NW,315,0.0,0.0,88,0.00,,,0.00,WUHU21623XXSP,2013-09-12 06:17:00,
2013-09-12 02:22:00,67.3,63.6,29.94,NW,315,0.0,0.0,88,0.00,,,0.00,WUHU21623XXSP,2013-09-12 06:22:00,
2013-09-12 02:27:00,67.3,63.6,29.93,NW,315,0.0,0.0,88,0.00,,,0.00,WUHU21623XXSP,2013-09-12 06:27:00,
2013-09-12 02:32:00,67.3,63.6,29.93,NW,315,0.0,0.0,88,0.00,,,0.00,WUHU21623XXSP,2013-09-12 06:32:00,
2013-09-12 02:37:00,67.3,63.6,29.93,WNW,292,0.0,0.0,88,0.00,,,0.00,WUHU21623XXSP,2013-09-12 06:37:00,
2013-09-12 02:42:00,67.3,63.6,29.93,WNW,292,0.0,0.0,88,0.00,,,0.00,WUHU21623XXSP,2013-09-12 06:42:00,
2013-09-12 02:47:00,67.3,63.6,29.93,WNW,292,0.0,0.0,88,0.00,,,0.00,WUHU21623XXSP,2013-09-12 06:47:00,
2013-09-12 02:52:00,67.3,63.6,29.93,WSW,247,0.0,0.0,88,0.00,,,0.00,WUHU21623XXSP,2013-09-12 06:52:00,
2013-09-12 02:57:00,67.3,63.6,29.93,WSW,247,0.0,0.0,88,0.00,,,0.00,WUHU21623XXSP,2013-09-12 06:57:00,
2013-09-12 03:02:00,67.1,63.4,29.93,WSW,247,0.0,0.0,88,0.00,,,0.00,WUHU21623XXSP,2013-09-12 07:02:00,
2013-09-12 03:07:00,67.1,63.4,29.93,WSW,247,0.0,0.0,88,0.00,,,0.00,WUHU21623XXSP,2013-09-12 07:07:00,
2013-09-12 03:12:00,67.1,63.4,29.93,WSW,247,0.0,0.0,88,0.00,,,0.00,WUHU21623XXSP,2013-09-12 07:12:00,
2013-09-12 03:17:00,66.9,63.2,29.92,WSW,247,0.0,0.0,88,0.00,,,0.00,WUHU21623XXSP,2013-09-12 07:17:00,
2013-09-12 03:22:00,66.9,63.2,29.92,WSW,247,0.0,0.0,88,0.00,,,0.00,WUHU21623XXSP,2013-09-12 07:22:00,
2013-09-12 03:27:00,66.9,63.2,29.92,WSW,247,0.0,0.0,88,0.00,,,0.00,WUHU21623XXSP,2013-09-12 07:27:00,
2013-09-12 03:32:00,66.9,63.2,29.92,WSW,247,0.0,0.0,88,0.00,,,0.00,WUHU21623XXSP,2013-09-12 07:32:00,
2013-09-12 03:37:00,66.9,63.2,29.92,WSW,247,0.0,0.0,88,0.00,,,0.00,WUHU21623XXSP,2013-09-12 07:37:00,
2013-09-12 03:42:00,66.9,63.2,29.92,WSW,247,0.0,0.0,88,0.00,,,0.00,WUHU21623XXSP,2013-09-12 07:42:00,
2013-09-12 03:47:00,66.9,63.2,29.92,WSW,247,0.0,0.0,88,0.00,,,0.00,WUHU21623XXSP,2013-09-12 07:47:00,
2013-09-12 03:53:00,66.9,63.2,29.92,WSW,247,0.0,0.0,88,0.00,,,0.00,WUHU21623XXSP,2013-09-12 07:53:00,
2013-09-12 03:58:00,66.9,63.2,29.92,WSW,247,0.0,0.0,88,0.00,,,0.00,WUHU21623XXSP,2013-09-12 07:58:00,
2013-09-12 04:03:00,66.7,63.0,29.92,WSW,247,0.0,0.0,88,0.00,,,0.00,WUHU21623XXSP,2013-09-12 08:03:00,
2013-09-12 04:08:00,66.7,63.0,29.92,WSW,247,0.0,0.0,88,0.00,,,0.00,WUHU21623XXSP,2013-09-12 08:08:00,
2013-09-12 04:13:00,66.7,63.0,29.91,WSW,247,0.0,0.0,88,0.00,,,0.00,WUHU21623XXSP,2013-09-12 08:13:00,
2013-09-12 04:18:00,66.7,63.0,29.91,WSW,247,0.0,0.0,88,0.00,,,0.00,WUHU21623XXSP,2013-09-12 08:18:00,
2013-09-12 04:23:00,66.7,63.0,29.91,WSW,247,0.0,0.0,88,0.00,,,0.00,WUHU21623XXSP,2013-09-12 08:23:00,
2013-09-12 04:28:00,66.7,63.0,29.91,WSW,247,0.0,0.0,88,0.00,,,0.00,WUHU21623XXSP,2013-09-12 08:28:00,
2013-09-12 04:33:00,66.6,62.9,29.91,WSW,247,0.0,0.0,88,0.00,,,0.00,WUHU21623XXSP,2013-09-12 08:33:00,
2013-09-12 04:38:00,66.6,62.9,29.91,WSW,247,0.0,0.0,88,0.00,,,0.00,WUHU21623XXSP,2013-09-12 08:38:00,
2013-09-12 04:43:00,66.6,62.9,29.91,WSW,247,0.0,0.0,88,0.00,,,0.00,WUHU21623XXSP,2013-09-12 08:43:00,
2013-09-12 04:48:00,66.4,62.7,29.92,WSW,247,0.0,0.0,88,0.00,,,0.00,WUHU21623XXSP,2013-09-12 08:48:00,
2013-09-12 04:53:00,66.4,62.7,29.92,WSW,247,0.0,0.0,88,0.00,,,0.00,WUHU21623XXSP,2013-09-12 08:53:00,
2013-09-12 04:58:00,66.2,62.5,29.92,WSW,247,0.0,0.0,88,0.00,,,0.00,WUHU21623XXSP,2013-09-12 08:58:00,
2013-09-12 05:03:00,66.2,62.5,29.92,WSW,247,0.0,0.0,88,0.00,,,0.00,WUHU21623XXSP,2013-09-12 09:03:00,
2013-09-12 05:08:00,66.0,62.3,29.92,WSW,247,0.0,0.0,88,0.00,,,0.00,WUHU21623XXSP,2013-09-12 09:08:00,
2013-09-12 05:13:00,66.0,62.3,29.92,WSW,247,0.0,0.0,88,0.00,,,0.00,WUHU21623XXSP,2013-09-12 09:13:00,
2013-09-12 05:18:00,65.8,62.2,29.92,WSW,247,0.0,0.0,88,0.00,,,0.00,WUHU21623XXSP,2013-09-12 09:18:00,
2013-09-12 05:23:00,65.8,62.2,29.92,WSW,247,0.0,0.0,88,0.00,,,0.00,WUHU21623XXSP,2013-09-12 09:23:00,
2013-09-12 05:28:00,65.7,62.0,29.91,WSW,247,0.0,0.0,88,0.00,,,0.00,WUHU21623XXSP,2013-09-12 09:28:00,
2013-09-12 05:33:00,65.5,61.8,29.91,WSW,247,0.0,0.0,88,0.00,,,0.00,WUHU21623XXSP,2013-09-12 09:33:00,
2013-09-12 05:38:00,65.5,61.8,29.91,WSW,247,0.0,0.0,88,0.00,,,0.00,WUHU21623XXSP,2013-09-12 09:38:00,
2013-09-12 05:43:00,65.3,61.7,29.91,WSW,247,0.0,0.0,88,0.00,,,0.00,WUHU21623XXSP,2013-09-12 09:43:00,
2013-09-12 05:48:00,65.1,61.5,29.91,WSW,247,0.0,0.0,88,0.00,,,0.00,WUHU21623XXSP,2013-09-12 09:48:00,
2013-09-12 05:53:00,65.1,61.5,29.91,WSW,247,0.0,0.0,88,0.00,,,0.00,WUHU21623XXSP,2013-09-12 09:53:00,
2013-09-12 05:58:00,65.1,61.5,29.91,WSW,247,0.0,0.0,88,0.00,,,0.00,WUHU21623XXSP,2013-09-12 09:58:00,
2013-09-12 06:03:00,64.9,61.3,29.91,WSW,247,0.0,0.0,88,0.02,,,0.00,WUHU21623XXSP,2013-09-12 10:03:00,
2013-09-12 06:08:00,64.8,61.3,29.91,WSW,247,0.0,0.0,88,0.02,,,0.02,WUHU21623XXSP,2013-09-12 10:08:00,
2013-09-12 06:13:00,64.8,61.2,29.91,WSW,247,0.0,0.0,88,0.02,,,0.02,WUHU21623XXSP,2013-09-12 10:13:00,
2013-09-12 06:18:00,64.8,61.2,29.91,WSW,247,0.0,0.0,88,0.02,,,0.02,WUHU21623XXSP,2013-09-12 10:18:00,
2013-09-12 06:23:00,64.6,61.0,29.91,WSW,247,0.0,0.0,88,0.02,,,0.02,WUHU21623XXSP,2013-09-12 10:23:00,
2013-09-12 06:28:00,64.6,61.0,29.91,WSW,247,0.0,0.0,88,0.02,,,0.02,WUHU21623XXSP,2013-09-12 10:28:00,
2013-09-12 06:33:00,64.6,61.0,29.91,WSW,247,0.0,0.0,88,0.02,,,0.02,WUHU21623XXSP,2013-09-12 10:33:00,
2013-09-12 06:38:00,64.6,61.0,29.92,WSW,247,0.0,0.0,88,0.02,,,0.02,WUHU21623XXSP,2013-09-12 10:38:00,
2013-09-12 06:43:00,64.6,61.0,29.92,WSW,247,0.0,0.0,88,0.02,,,0.02,WUHU21623XXSP,2013-09-12 10:43:00,
2013-09-12 06:48:00,64.6,61.0,29.92,WSW,247,0.0,0.0,88,0.02,,,0.02,WUHU21623XXSP,2013-09-12 10:48:00,
2013-09-12 06:53:00,64.4,61.2,29.92,WSW,247,0.0,0.0,89,0.02,,,0.02,WUHU21623XXSP,2013-09-12 10:53:00,
2013-09-12 06:55:00,64.2,60.9,29.92,WSW,248,0.0,0.0,89,0.00,,,0.00,WUHU21623XXSP,2013-09-12 10:55:00,
2013-09-12 06:58:00,64.2,61.0,29.91,WSW,247,0.0,0.0,89,0.00,,,0.02,WUHU21623XXSP,2013-09-12 10:58:00,
2013-09-12 07:03:00,64.2,61.0,29.91,WSW,247,0.0,0.0,89,0.00,,,0.02,WUHU21623XXSP,2013-09-12 11:03:00,
2013-09-12 07:08:00,64.2,61.0,29.91,WSW,247,0.0,0.0,89,0.00,,,0.02,WUHU21623XXSP,2013-09-12 11:08:00,
2013-09-12 07:14:00,64.2,61.0,29.91,WSW,247,0.0,0.0,89,0.00,,,0.02,WUHU21623XXSP,2013-09-12 11:14:00,
2013-09-12 07:19:00,64.2,61.0,29.91,WSW,247,0.0,0.0,89,0.00,,,0.02,WUHU21623XXSP,2013-09-12 11:19:00,
2013-09-12 07:24:00,64.2,61.0,29.91,WSW,247,0.0,0.0,89,0.00,,,0.02,WUHU21623XXSP,2013-09-12 11:24:00,
2013-09-12 07:29:00,64.2,61.0,29.91,WSW,247,0.0,0.0,89,0.00,,,0.02,WUHU21623XXSP,2013-09-12 11:29:00,
2013-09-12 07:34:00,64.0,60.8,29.91,WSW,247,0.0,0.0,89,0.00,,,0.02,WUHU21623XXSP,2013-09-12 11:34:00,
2013-09-12 07:39:00,64.0,60.8,29.92,WSW,247,0.0,0.0,89,0.00,,,0.02,WUHU21623XXSP,2013-09-12 11:39:00,
2013-09-12 07:44:00,64.0,60.8,29.91,WSW,247,0.0,0.0,89,0.00,,,0.02,WUHU21623XXSP,2013-09-12 11:44:00,
2013-09-12 07:49:00,64.0,60.8,29.91,WSW,247,0.0,0.0,89,0.00,,,0.02,WUHU21623XXSP,2013-09-12 11:49:00,
2013-09-12 07:54:00,64.2,61.0,29.91,WSW,247,0.0,0.0,89,0.00,,,0.02,WUHU21623XXSP,2013-09-12 11:54:00,
2013-09-12 07:55:00,64.2,60.9,29.92,WSW,248,0.0,0.0,89,0.00,,,0.00,WUHU21623XXSP,2013-09-12 11:55:00,
2013-09-12 07:59:00,64.0,60.8,29.92,WSW,247,0.0,0.0,89,0.00,,,0.02,WUHU21623XXSP,2013-09-12 11:59:00,
2013-09-12 08:04:00,64.2,61.0,29.92,WSW,247,0.0,0.0,89,0.00,,,0.02,WUHU21623XXSP,2013-09-12 12:04:00,
2013-09-12 08:09:00,64.6,61.3,29.92,NNW,337,0.0,0.0,89,0.00,,,0.02,WUHU21623XXSP,2013-09-12 12:09:00,
2013-09-12 08:14:00,64.8,61.5,29.92,West,270,0.0,0.0,89,0.00,,,0.02,WUHU21623XXSP,2013-09-12 12:14:00,
2013-09-12 08:19:00,64.9,61.7,29.92,NNW,337,0.0,0.0,89,0.00,,,0.02,WUHU21623XXSP,2013-09-12 12:19:00,
2013-09-12 08:24:00,65.1,62.2,29.92,NNW,337,0.0,0.0,90,0.00,,,0.02,WUHU21623XXSP,2013-09-12 12:24:00,
2013-09-12 08:29:00,65.3,62.3,29.92,NW,315,0.0,1.3,90,0.00,,,0.02,WUHU21623XXSP,2013-09-12 12:29:00,
2013-09-12 08:34:00,65.5,62.5,29.92,North,0,2.7,3.6,90,0.00,,,0.02,WUHU21623XXSP,2013-09-12 12:34:00,
2013-09-12 08:39:00,65.7,62.7,29.92,NNW,337,0.0,3.6,90,0.00,,,0.02,WUHU21623XXSP,2013-09-12 12:39:00,
2013-09-12 08:44:00,65.8,62.8,29.92,NW,315,0.0,0.0,90,0.00,,,0.02,WUHU21623XXSP,2013-09-12 12:44:00,
2013-09-12 08:49:00,65.8,62.8,29.92,NNW,337,0.0,2.2,90,0.00,,,0.02,WUHU21623XXSP,2013-09-12 12:49:00,
2013-09-12 08:54:00,66.0,63.0,29.92,North,0,0.0,2.9,90,0.00,,,0.02,WUHU21623XXSP,2013-09-12 12:54:00,
2013-09-12 08:55:00,66.0,63.0,29.92,WNW,293,0.0,0.0,90,0.00,,,0.00,WUHU21623XXSP,2013-09-12 12:55:00,
2013-09-12 08:59:00,66.0,63.0,29.92,WNW,292,1.1,2.9,90,0.00,,,0.02,WUHU21623XXSP,2013-09-12 12:59:00,
2013-09-12 09:04:00,66.2,63.1,29.92,NNW,337,0.0,1.1,90,0.00,,,0.02,WUHU21623XXSP,2013-09-12 13:04:00,
2013-09-12 09:09:00,66.2,63.0,29.92,North,0,0.0,3.1,90,0.00,,,0.02,WUHU21623XXSP,2013-09-12 13:09:00,
2013-09-12 09:14:00,66.0,63.0,29.92,NE,45,0.7,3.1,90,0.00,,,0.02,WUHU21623XXSP,2013-09-12 13:14:00,
2013-09-12 09:19:00,66.0,63.0,29.92,NNW,337,0.0,0.7,90,0.00,,,0.02,WUHU21623XXSP,2013-09-12 13:19:00,
2013-09-12 09:24:00,66.0,62.6,29.92,North,0,2.7,2.7,89,0.00,,,0.02,WUHU21623XXSP,2013-09-12 13:24:00,
2013-09-12 09:29:00,65.8,62.5,29.92,North,0,0.0,2.7,89,0.00,,,0.02,WUHU21623XXSP,2013-09-12 13:29:00,
2013-09-12 09:34:00,65.8,62.5,29.92,North,0,0.0,0.0,89,0.00,,,0.02,WUHU21623XXSP,2013-09-12 13:34:00,
2013-09-12 09:39:00,65.8,62.5,29.93,NNE,22,0.0,0.0,89,0.00,,,0.02,WUHU21623XXSP,2013-09-12 13:39:00,
2013-09-12 09:44:00,66.0,62.5,29.93,WNW,292,0.0,0.0,88,0.00,,,0.02,WUHU21623XXSP,2013-09-12 13:44:00,
2013-09-12 09:49:00,66.0,62.3,29.93,NNW,337,0.0,0.0,88,0.00,,,0.02,WUHU21623XXSP,2013-09-12 13:49:00,
2013-09-12 09:54:00,66.4,62.7,29.92,NNW,337,0.0,0.0,88,0.00,,,0.02,WUHU21623XXSP,2013-09-12 13:54:00,
2013-09-12 09:55:00,66.4,62.7,29.93,NW,315,0.0,0.0,88,0.00,,,0.00,WUHU21623XXSP,2013-09-12 13:55:00,
2013-09-12 09:59:00,66.4,62.7,29.93,NW,315,0.0,0.0,88,0.00,,,0.02,WUHU21623XXSP,2013-09-12 13:59:00,
2013-09-12 10:04:00,66.4,62.7,29.93,NNE,22,0.0,0.0,88,0.00,,,0.02,WUHU21623XXSP,2013-09-12 14:04:00,
2013-09-12 10:09:00,66.6,62.5,29.93,NW,315,0.0,0.0,87,0.00,,,0.02,WUHU21623XXSP,2013-09-12 14:09:00,
2013-09-12 10:14:00,66.4,62.0,29.93,NNW,337,0.0,1.6,86,0.00,,,0.02,WUHU21623XXSP,2013-09-12 14:14:00,
2013-09-12 10:19:00,66.4,61.7,29.93,West,270,0.0,1.6,85,0.00,,,0.02,WUHU21623XXSP,2013-09-12 14:19:00,
2013-09-12 10:24:00,66.2,61.2,29.93,NW,315,0.0,3.8,84,0.00,,,0.02,WUHU21623XXSP,2013-09-12 14:24:00,
2013-09-12 10:29:00,66.4,61.4,29.93,NNW,337,7.6,7.6,84,0.00,,,0.02,WUHU21623XXSP,2013-09-12 14:29:00,
2013-09-12 10:34:00,66.4,60.7,29.93,North,0,0.0,7.6,82,0.00,,,0.02,WUHU21623XXSP,2013-09-12 14:34:00,
2013-09-12 10:39:00,66.6,60.9,29.93,NNE,22,2.7,2.7,82,0.00,,,0.02,WUHU21623XXSP,2013-09-12 14:39:00,
2013-09-12 10:44:00,66.6,60.6,29.94,NNW,337,0.0,2.7,81,0.00,,,0.02,WUHU21623XXSP,2013-09-12 14:44:00,
2013-09-12 10:49:00,66.9,60.6,29.93,ENE,67,4.0,4.0,80,0.00,,,0.02,WUHU21623XXSP,2013-09-12 14:49:00,
2013-09-12 10:54:00,66.9,60.6,29.93,NNE,22,0.0,4.0,80,0.00,,,0.02,WUHU21623XXSP,2013-09-12 14:54:00,
2013-09-12 10:55:00,67.3,60.6,29.93,NW,315,0.0,0.0,79,0.00,,,0.00,WUHU21623XXSP,2013-09-12 14:55:00,
2013-09-12 10:59:00,67.1,60.4,29.93,NW,315,2.5,4.0,79,0.00,,,0.02,WUHU21623XXSP,2013-09-12 14:59:00,
2013-09-12 11:04:00,67.5,60.4,29.93,NW,315,4.9,4.9,78,0.00,,,0.02,WUHU21623XXSP,2013-09-12 15:04:00,
2013-09-12 11:09:00,67.6,60.6,29.93,WNW,292,0.0,4.9,78,0.00,,,0.02,WUHU21623XXSP,2013-09-12 15:09:00,
2013-09-12 11:14:00,67.8,60.4,29.93,NW,315,0.0,0.0,77,0.00,,,0.02,WUHU21623XXSP,2013-09-12 15:14:00,
2013-09-12 11:19:00,68.2,60.7,29.92,NW,315,0.0,3.8,77,0.00,,,0.02,WUHU21623XXSP,2013-09-12 15:19:00,
2013-09-12 11:24:00,68.5,61.1,29.93,NNW,337,1.8,3.8,77,0.00,,,0.02,WUHU21623XXSP,2013-09-12 15:24:00,
2013-09-12 11:29:00,68.9,61.4,29.93,NNE,22,0.0,1.8,77,0.00,,,0.02,WUHU21623XXSP,2013-09-12 15:29:00,
2013-09-12 11:34:00,69.6,61.7,29.93,NW,315,1.1,1.1,77,0.00,,,0.02,WUHU21623XXSP,2013-09-12 15:34:00,
2013-09-12 11:39:00,70.0,62.4,29.93,NW,315,0.0,1.1,77,0.00,,,0.02,WUHU21623XXSP,2013-09-12 15:39:00,
2013-09-12 11:44:00,70.3,62.3,29.93,NW,315,0.0,0.0,76,0.00,,,0.02,WUHU21623XXSP,2013-09-12 15:44:00,
2013-09-12 11:49:00,70.9,62.1,29.93,NNW,337,3.1,3.1,74,0.00,,,0.02,WUHU21623XXSP,2013-09-12 15:49:00,
2013-09-12 11:54:00,71.4,61.9,29.92,NE,45,0.0,3.4,72,0.00,,,0.02,WUHU21623XXSP,2013-09-12 15:54:00,
2013-09-12 11:55:00,71.8,61.3,29.93,North,0,2.9,2.9,69,0.00,,,0.00,WUHU21623XXSP,2013-09-12 15:55:00,
2013-09-12 11:59:00,71.6,61.7,29.93,West,270,0.0,3.4,71,0.00,,,0.02,WUHU21623XXSP,2013-09-12 15:59:00,
2013-09-12 12:04:00,72.0,61.3,29.93,NW,315,1.3,2.9,69,0.00,,,0.02,WUHU21623XXSP,2013-09-12 16:04:00,
2013-09-12 12:09:00,72.1,60.1,29.93,NW,315,5.6,5.6,66,0.00,,,0.02,WUHU21623XXSP,2013-09-12 16:09:00,
2013-09-12 12:14:00,72.3,60.7,29.93,NNW,337,9.4,9.4,67,0.00,,,0.02,WUHU21623XXSP,2013-09-12 16:14:00,
2013-09-12 12:19:00,72.5,59.6,29.93,NNW,337,5.4,9.4,64,0.00,,,0.02,WUHU21623XXSP,2013-09-12 16:19:00,
2013-09-12 12:24:00,73.0,59.6,29.93,West,270,1.3,5.8,63,0.00,,,0.02,WUHU21623XXSP,2013-09-12 16:24:00,
2013-09-12 12:29:00,73.2,59.8,29.93,NNW,337,4.3,4.3,63,0.00,,,0.02,WUHU21623XXSP,2013-09-12 16:29:00,
2013-09-12 12:34:00,73.6,59.4,29.93,NW,315,0.0,4.3,61,0.00,,,0.02,WUHU21623XXSP,2013-09-12 16:34:00,
2013-09-12 12:39:00,73.6,59.3,29.93,NE,45,0.0,0.0,61,0.00,,,0.02,WUHU21623XXSP,2013-09-12 16:39:00,
2013-09-12 12:44:00,73.9,60.1,29.93,NNE,22,0.0,0.0,62,0.00,,,0.02,WUHU21623XXSP,2013-09-12 16:44:00,
2013-09-12 12:49:00,74.5,60.2,29.93,NNE,22,0.0,0.0,61,0.00,,,0.02,WUHU21623XXSP,2013-09-12 16:49:00,
2013-09-12 12:54:00,74.8,60.5,29.93,NW,315,0.0,0.0,61,0.00,,,0.02,WUHU21623XXSP,2013-09-12 16:54:00,
2013-09-12 12:55:00,75.4,60.3,29.92,NW,315,0.0,0.0,59,0.00,,,0.00,WUHU21623XXSP,2013-09-12 16:55:00,
2013-09-12 12:59:00,75.0,60.3,29.93,NW,315,0.0,0.0,60,0.00,,,0.02,WUHU21623XXSP,2013-09-12 16:59:00,
2013-09-12 13:04:00,75.6,60.3,29.92,NNW,337,0.0,0.0,59,0.00,,,0.02,WUHU21623XXSP,2013-09-12 17:04:00,
2013-09-12 13:09:00,75.9,60.6,29.92,NW,315,5.1,5.1,59,0.00,,,0.02,WUHU21623XXSP,2013-09-12 17:09:00,
2013-09-12 13:14:00,75.9,59.6,29.92,North,0,0.0,5.1,57,0.00,,,0.02,WUHU21623XXSP,2013-09-12 17:14:00,
2013-09-12 13:19:00,76.1,59.7,29.92,WNW,292,0.0,3.6,57,0.00,,,0.02,WUHU21623XXSP,2013-09-12 17:19:00,
2013-09-12 13:24:00,76.3,59.9,29.91,ENE,67,0.0,0.9,57,0.00,,,0.02,WUHU21623XXSP,2013-09-12 17:24:00,
2013-09-12 13:29:00,76.6,59.7,29.92,NNW,337,0.0,0.9,56,0.00,,,0.02,WUHU21623XXSP,2013-09-12 17:29:00,
2013-09-12 13:34:00,76.8,59.4,29.92,North,0,3.4,3.6,55,0.00,,,0.02,WUHU21623XXSP,2013-09-12 17:34:00,
2013-09-12 13:39:00,76.8,59.9,29.91,NW,315,0.0,3.6,56,0.00,,,0.02,WUHU21623XXSP,2013-09-12 17:39:00,
2013-09-12 13:44:00,77.2,58.7,29.91,NNW,337,2.7,3.4,53,0.00,,,0.02,WUHU21623XXSP,2013-09-12 17:44:00,
2013-09-12 13:49:00,77.2,58.2,29.91,North,0,0.0,6.3,52,0.00,,,0.02,WUHU21623XXSP,2013-09-12 17:49:00,
2013-09-12 13:54:00,77.4,58.9,29.91,NNE,22,1.3,6.3,53,0.00,,,0.02,WUHU21623XXSP,2013-09-12 17:54:00,
2013-09-12 13:55:00,77.4,59.1,29.91,NNW,338,0.0,0.0,53,0.00,,,0.00,WUHU21623XXSP,2013-09-12 17:55:00,
2013-09-12 13:59:00,77.4,58.9,29.91,NNW,337,0.0,6.5,53,0.00,,,0.02,WUHU21623XXSP,2013-09-12 17:59:00,
2013-09-12 14:04:00,77.4,58.9,29.91,NE,45,0.0,6.5,53,0.00,,,0.02,WUHU21623XXSP,2013-09-12 18:04:00,
2013-09-12 14:09:00,77.5,58.5,29.91,NNW,337,8.1,8.1,52,0.00,,,0.02,WUHU21623XXSP,2013-09-12 18:09:00,
2013-09-12 14:14:00,77.5,58.0,29.91,NNW,337,2.0,8.1,51,0.00,,,0.02,WUHU21623XXSP,2013-09-12 18:14:00,
2013-09-12 14:19:00,77.4,57.8,29.90,NW,315,6.0,6.0,51,0.00,,,0.02,WUHU21623XXSP,2013-09-12 18:19:00,
2013-09-12 14:24:00,77.5,58.5,29.90,NW,315,0.0,6.0,52,0.00,,,0.02,WUHU21623XXSP,2013-09-12 18:24:00,
2013-09-12 14:29:00,77.4,57.3,29.90,East,90,2.7,6.3,50,0.00,,,0.02,WUHU21623XXSP,2013-09-12 18:29:00,
2013-09-12 14:34:00,77.2,57.2,29.90,NW,315,4.7,6.3,50,0.00,,,0.02,WUHU21623XXSP,2013-09-12 18:34:00,
2013-09-12 14:39:00,76.8,56.9,29.90,WSW,247,0.0,4.7,50,0.00,,,0.02,WUHU21623XXSP,2013-09-12 18:39:00,
2013-09-12 14:44:00,76.6,57.2,29.90,NW,315,0.9,4.9,51,0.00,,,0.02,WUHU21623XXSP,2013-09-12 18:44:00,
2013-09-12 14:49:00,76.6,57.2,29.90,WNW,292,0.0,4.9,51,0.00,,,0.02,WUHU21623XXSP,2013-09-12 18:49:00,
2013-09-12 14:54:00,76.6,57.2,29.90,North,0,6.0,6.0,51,0.00,,,0.02,WUHU21623XXSP,2013-09-12 18:54:00,
2013-09-12 14:55:00,76.3,56.9,29.89,NW,315,1.6,1.6,51,0.00,,,0.00,WUHU21623XXSP,2013-09-12 18:55:00,
2013-09-12 14:59:00,76.3,56.9,29.90,NW,315,0.0,6.0,51,0.00,,,0.02,WUHU21623XXSP,2013-09-12 18:59:00,
2013-09-12 15:04:00,76.3,56.9,29.89,NNW,337,0.0,1.6,51,0.00,,,0.02,WUHU21623XXSP,2013-09-12 19:04:00,
2013-09-12 15:09:00,76.3,57.4,29.89,NW,315,5.4,5.4,52,0.00,,,0.02,WUHU21623XXSP,2013-09-12 19:09:00,
2013-09-12 15:14:00,76.1,56.2,29.89,North,0,4.3,5.4,50,0.00,,,0.02,WUHU21623XXSP,2013-09-12 19:14:00,
2013-09-12 15:19:00,75.9,56.0,29.89,NW,315,0.0,4.9,50,0.00,,,0.02,WUHU21623XXSP,2013-09-12 19:19:00,
2013-09-12 15:24:00,75.9,56.6,29.89,NW,315,6.9,6.9,51,0.00,,,0.02,WUHU21623XXSP,2013-09-12 19:24:00,
2013-09-12 15:29:00,75.9,56.6,29.88,NNW,337,0.0,6.9,51,0.00,,,0.02,WUHU21623XXSP,2013-09-12 19:29:00,
2013-09-12 15:34:00,75.6,56.2,29.88,WSW,247,0.0,4.5,51,0.00,,,0.02,WUHU21623XXSP,2013-09-12 19:34:00,
2013-09-12 15:39:00,75.0,55.7,29.88,NW,315,0.0,4.5,51,0.00,,,0.02,WUHU21623XXSP,2013-09-12 19:39:00,
2013-09-12 15:44:00,74.8,56.6,29.88,NNW,337,0.0,0.0,53,0.00,,,0.02,WUHU21623XXSP,2013-09-12 19:44:00,
2013-09-12 15:49:00,74.8,56.6,29.88,NNW,337,0.0,0.0,53,0.00,,,0.02,WUHU21623XXSP,2013-09-12 19:49:00,
2013-09-12 15:54:00,75.0,56.2,29.88,West,270,0.0,3.4,52,0.00,,,0.02,WUHU21623XXSP,2013-09-12 19:54:00,
2013-09-12 15:55:00,74.3,56.2,29.88,NNW,338,0.0,0.0,53,0.00,,,0.00,WUHU21623XXSP,2013-09-12 19:55:00,
2013-09-12 15:59:00,74.5,55.7,29.88,NNE,22,0.0,3.4,52,0.00,,,0.02,WUHU21623XXSP,2013-09-12 19:59:00,
2013-09-12 16:04:00,74.1,55.8,29.88,NE,45,0.0,3.4,53,0.00,,,0.02,WUHU21623XXSP,2013-09-12 20:04:00,
2013-09-12 16:09:00,73.8,56.0,29.88,NNW,337,0.0,0.0,54,0.00,,,0.02,WUHU21623XXSP,2013-09-12 20:09:00,
2013-09-12 16:14:00,73.4,55.6,29.88,North,0,0.0,0.0,54,0.00,,,0.02,WUHU21623XXSP,2013-09-12 20:14:00,
2013-09-12 16:19:00,73.8,56.5,29.88,NE,45,0.0,0.0,55,0.00,,,0.02,WUHU21623XXSP,2013-09-12 20:19:00,
2013-09-12 16:24:00,74.1,56.3,29.88,NW,315,0.0,1.1,54,0.00,,,0.02,WUHU21623XXSP,2013-09-12 20:24:00,
2013-09-12 16:29:00,74.8,57.1,29.87,ESE,112,3.1,3.8,54,0.00,,,0.02,WUHU21623XXSP,2013-09-12 20:29:00,
2013-09-12 16:34:00,75.0,56.7,29.88,North,0,0.0,3.8,53,0.00,,,0.02,WUHU21623XXSP,2013-09-12 20:34:00,
2013-09-12 16:39:00,75.4,57.1,29.87,NE,45,0.0,0.0,53,0.00,,,0.02,WUHU21623XXSP,2013-09-12 20:39:00,
2013-09-12 16:44:00,75.4,56.6,29.88,WNW,292,0.0,5.8,52,0.00,,,0.02,WUHU21623XXSP,2013-09-12 20:44:00,
2013-09-12 16:49:00,75.0,56.2,29.88,NNW,337,0.0,5.8,52,0.00,,,0.02,WUHU21623XXSP,2013-09-12 20:49:00,
2013-09-12 16:54:00,74.8,56.0,29.88,NNW,337,0.0,0.0,52,0.00,,,0.02,WUHU21623XXSP,2013-09-12 20:54:00,
2013-09-12 16:55:00,74.8,57.2,29.86,NW,315,0.0,0.0,54,0.00,,,0.00,WUHU21623XXSP,2013-09-12 20:55:00,
2013-09-12 16:59:00,74.8,57.1,29.87,WNW,292,0.0,0.0,54,0.00,,,0.02,WUHU21623XXSP,2013-09-12 20:59:00,
2013-09-12 17:04:00,74.8,56.6,29.87,West,270,0.0,0.0,53,0.00,,,0.02,WUHU21623XXSP,2013-09-12 21:04:00,
2013-09-12 17:09:00,74.8,56.6,29.86,NNW,337,2.9,2.9,53,0.00,,,0.02,WUHU21623XXSP,2013-09-12 21:09:00,
2013-09-12 17:14:00,74.8,56.6,29.86,WNW,292,1.1,2.9,53,0.00,,,0.02,WUHU21623XXSP,2013-09-12 21:14:00,
2013-09-12 17:19:00,75.0,56.2,29.86,NW,315,2.7,2.7,52,0.00,,,0.02,WUHU21623XXSP,2013-09-12 21:19:00,
2013-09-12 17:24:00,75.0,56.7,29.86,North,0,0.0,2.7,53,0.00,,,0.02,WUHU21623XXSP,2013-09-12 21:24:00,
2013-09-12 17:30:00,75.0,56.2,29.86,WNW,292,0.0,0.0,52,0.00,,,0.02,WUHU21623XXSP,2013-09-12 21:30:00,
2013-09-12 17:35:00,74.8,56.0,29.86,NW,315,0.0,1.8,52,0.00,,,0.02,WUHU21623XXSP,2013-09-12 21:35:00,
2013-09-12 17:40:00,74.8,56.0,29.86,West,270,0.0,1.8,52,0.00,,,0.02,WUHU21623XXSP,2013-09-12 21:40:00,
2013-09-12 17:45:00,74.8,56.0,29.86,NW,315,0.0,0.0,52,0.00,,,0.02,WUHU21623XXSP,2013-09-12 21:45:00,
2013-09-12 17:50:00,74.8,56.0,29.86,NW,315,0.0,2.5,52,0.00,,,0.02,WUHU21623XXSP,2013-09-12 21:50:00,
2013-09-12 17:55:00,74.3,56.0,29.88,NNW,337,5.4,5.4,53,0.00,,,0.02,WUHU21623XXSP,2013-09-12 21:55:00,
2013-09-12 18:55:00,62.4,54.5,29.90,NNE,23,0.0,0.0,75,0.00,,,0.00,WUHU21623XXSP,2013-09-12 22:55:00,
2013-09-12 19:55:00,60.6,54.1,29.93,NNE,23,0.0,0.0,79,0.00,,,0.08,WUHU21623XXSP,2013-09-12 23:55:00,
2013-09-12 20:55:00,58.8,52.7,29.93,NW,315,0.0,0.0,80,0.00,,,0.10,WUHU21623XXSP,2013-09-13 00:55:00,
2013-09-12 21:55:00,55.9,49.2,29.95,NNW,338,0.0,0.0,78,0.00,,,0.10,WUHU21623XXSP,2013-09-13 01:55:00,
2013-09-12 22:55:00,54.5,47.5,29.96,NNW,338,0.0,0.0,77,0.00,,,0.10,WUHU21623XXSP,2013-09-13 02:55:00,
2013-09-12 23:55:00,53.4,46.4,29.97,NW,315,2.0,2.0,77,0.00,,,0.10,WUHU21623XXSP,2013-09-13 03:55:00,